<?xml version="1.0" encoding="UTF-8" standalone="no" ?>
<gpx xmlns="http://www.topografix.com/GPX/1/1" xmlns:xsi="http://www.w3.org/2001/XMLSchema-instance" xsi:schemaLocation="http://www.topografix.com/GPX/1/1 http://www.topografix.com/GPX/1/1/gpx.xsd" version="1.1" creator="VisuGPX - https://www.visugpx.com">
  <metadata>
    <name>N°6 La Devèze</name>
    <desc><![CDATA[

comment ...]]></desc>
  </metadata>
  <trk>
    <name><![CDATA[N°6 La Devèze]]></name>
    <desc><![CDATA[comment ...]]></desc>
    <extensions>
      <line xmlns="http://www.topografix.com/GPX/gpx_style/0/2">
        <color>00bdbd</color>
        <width>4</width>
          <extensions>
            <sens>1</sens>
          </extensions>
      </line>
    </extensions>
    <trkseg>
      <trkpt lat="42.57973" lon="2.10205">
        <ele>1541</ele>
        <time>2021-11-03T10:29:16Z</time>
      </trkpt>
      <trkpt lat="42.58062" lon="2.10156">
        <ele>1543</ele>
        <time>2021-11-03T10:29:16Z</time>
      </trkpt>
      <trkpt lat="42.58114" lon="2.10133">
        <ele>1544</ele>
        <time>2021-11-03T10:29:16Z</time>
      </trkpt>
      <trkpt lat="42.58261" lon="2.10157">
        <ele>1546</ele>
        <time>2021-11-03T10:29:16Z</time>
      </trkpt>
      <trkpt lat="42.58634" lon="2.10347">
        <ele>1547</ele>
        <time>2021-11-03T10:29:16Z</time>
      </trkpt>
      <trkpt lat="42.58694" lon="2.10362">
        <ele>1546</ele>
        <time>2021-11-03T10:29:16Z</time>
      </trkpt>
      <trkpt lat="42.58728" lon="2.10355">
        <ele>1547</ele>
        <time>2021-11-03T10:29:16Z</time>
      </trkpt>
      <trkpt lat="42.58753" lon="2.10383">
        <ele>1546</ele>
        <time>2021-11-03T10:29:16Z</time>
      </trkpt>
      <trkpt lat="42.58921" lon="2.1037">
        <ele>1548</ele>
        <time>2021-11-03T10:29:16Z</time>
      </trkpt>
      <trkpt lat="42.59283" lon="2.10408">
        <ele>1550</ele>
        <time>2021-11-03T10:29:16Z</time>
      </trkpt>
      <trkpt lat="42.59379" lon="2.10374">
        <ele>1551</ele>
        <time>2021-11-03T10:29:16Z</time>
      </trkpt>
      <trkpt lat="42.59572" lon="2.10334">
        <ele>1552</ele>
        <time>2021-11-03T10:29:16Z</time>
      </trkpt>
      <trkpt lat="42.59765" lon="2.1029">
        <ele>1555</ele>
        <time>2021-11-03T10:29:16Z</time>
      </trkpt>
      <trkpt lat="42.59886" lon="2.10257">
        <ele>1557</ele>
        <time>2021-11-03T10:29:16Z</time>
      </trkpt>
      <trkpt lat="42.59991" lon="2.1018">
        <ele>1560</ele>
        <time>2021-11-03T10:29:16Z</time>
      </trkpt>
      <trkpt lat="42.60041" lon="2.10159">
        <ele>1560</ele>
        <time>2021-11-03T10:29:16Z</time>
      </trkpt>
      <trkpt lat="42.60052" lon="2.10119">
        <ele>1562</ele>
        <time>2021-11-03T10:29:16Z</time>
      </trkpt>
      <trkpt lat="42.60063" lon="2.10058">
        <ele>1565</ele>
        <time>2021-11-03T10:29:16Z</time>
      </trkpt>
      <trkpt lat="42.60063" lon="2.10004">
        <ele>1567</ele>
        <time>2021-11-03T10:29:16Z</time>
      </trkpt>
      <trkpt lat="42.60094" lon="2.09964">
        <ele>1570</ele>
        <time>2021-11-03T10:29:16Z</time>
      </trkpt>
      <trkpt lat="42.60207" lon="2.0996">
        <ele>1568</ele>
        <time>2021-11-03T10:29:16Z</time>
      </trkpt>
      <trkpt lat="42.60231" lon="2.0993">
        <ele>1570</ele>
        <time>2021-11-03T10:29:16Z</time>
      </trkpt>
      <trkpt lat="42.60268" lon="2.09931">
        <ele>1569</ele>
        <time>2021-11-03T10:29:16Z</time>
      </trkpt>
      <trkpt lat="42.60279" lon="2.09971">
        <ele>1565</ele>
        <time>2021-11-03T10:29:16Z</time>
      </trkpt>
      <trkpt lat="42.60294" lon="2.10018">
        <ele>1561</ele>
        <time>2021-11-03T10:29:16Z</time>
      </trkpt>
      <trkpt lat="42.60323" lon="2.10028">
        <ele>1560</ele>
        <time>2021-11-03T10:29:16Z</time>
      </trkpt>
      <trkpt lat="42.60338" lon="2.10062">
        <ele>1560</ele>
        <time>2021-11-03T10:29:16Z</time>
      </trkpt>
      <trkpt lat="42.6036" lon="2.10092">
        <ele>1560</ele>
        <time>2021-11-03T10:29:16Z</time>
      </trkpt>
      <trkpt lat="42.6039" lon="2.1009">
        <ele>1560</ele>
        <time>2021-11-03T10:29:16Z</time>
      </trkpt>
      <trkpt lat="42.60429" lon="2.10069">
        <ele>1560</ele>
        <time>2021-11-03T10:29:16Z</time>
      </trkpt>
      <trkpt lat="42.6059" lon="2.09941">
        <ele>1563</ele>
        <time>2021-11-03T10:29:16Z</time>
      </trkpt>
      <trkpt lat="42.60626" lon="2.09934">
        <ele>1565</ele>
        <time>2021-11-03T10:29:16Z</time>
      </trkpt>
      <trkpt lat="42.60671" lon="2.09916">
        <ele>1568</ele>
        <time>2021-11-03T10:29:16Z</time>
      </trkpt>
      <trkpt lat="42.6071" lon="2.09904">
        <ele>1570</ele>
        <time>2021-11-03T10:29:16Z</time>
      </trkpt>
      <trkpt lat="42.60772" lon="2.09897">
        <ele>1569</ele>
        <time>2021-11-03T10:29:16Z</time>
      </trkpt>
      <trkpt lat="42.60817" lon="2.09882">
        <ele>1567</ele>
        <time>2021-11-03T10:29:16Z</time>
      </trkpt>
      <trkpt lat="42.60851" lon="2.09873">
        <ele>1565</ele>
        <time>2021-11-03T10:29:16Z</time>
      </trkpt>
      <trkpt lat="42.60972" lon="2.0989">
        <ele>1564</ele>
        <time>2021-11-03T10:29:16Z</time>
      </trkpt>
      <trkpt lat="42.61024" lon="2.09908">
        <ele>1563</ele>
        <time>2021-11-03T10:29:16Z</time>
      </trkpt>
      <trkpt lat="42.61054" lon="2.09904">
        <ele>1563</ele>
        <time>2021-11-03T10:29:16Z</time>
      </trkpt>
      <trkpt lat="42.61071" lon="2.09841">
        <ele>1566</ele>
        <time>2021-11-03T10:29:16Z</time>
      </trkpt>
      <trkpt lat="42.61074" lon="2.09761">
        <ele>1567</ele>
        <time>2021-11-03T10:29:16Z</time>
      </trkpt>
      <trkpt lat="42.61061" lon="2.09714">
        <ele>1567</ele>
        <time>2021-11-03T10:29:16Z</time>
      </trkpt>
      <trkpt lat="42.61038" lon="2.0965">
        <ele>1571</ele>
        <time>2021-11-03T10:29:16Z</time>
      </trkpt>
      <trkpt lat="42.61066" lon="2.09613">
        <ele>1567</ele>
        <time>2021-11-03T10:29:16Z</time>
      </trkpt>
      <trkpt lat="42.61086" lon="2.09574">
        <ele>1565</ele>
        <time>2021-11-03T10:29:16Z</time>
      </trkpt>
      <trkpt lat="42.61074" lon="2.09507">
        <ele>1570</ele>
        <time>2021-11-03T10:29:16Z</time>
      </trkpt>
      <trkpt lat="42.61043" lon="2.09431">
        <ele>1572</ele>
        <time>2021-11-03T10:29:16Z</time>
      </trkpt>
      <trkpt lat="42.60999" lon="2.09357">
        <ele>1575</ele>
        <time>2021-11-03T10:29:16Z</time>
      </trkpt>
      <trkpt lat="42.60961" lon="2.09184">
        <ele>1571</ele>
        <time>2021-11-03T10:29:16Z</time>
      </trkpt>
      <trkpt lat="42.60934" lon="2.09144">
        <ele>1572</ele>
        <time>2021-11-03T10:29:16Z</time>
      </trkpt>
      <trkpt lat="42.60892" lon="2.09201">
        <ele>1580</ele>
        <time>2021-11-03T10:29:16Z</time>
      </trkpt>
      <trkpt lat="42.60862" lon="2.09171">
        <ele>1582</ele>
        <time>2021-11-03T10:29:16Z</time>
      </trkpt>
      <trkpt lat="42.60817" lon="2.09092">
        <ele>1583</ele>
        <time>2021-11-03T10:29:16Z</time>
      </trkpt>
      <trkpt lat="42.60779" lon="2.09046">
        <ele>1585</ele>
        <time>2021-11-03T10:29:16Z</time>
      </trkpt>
      <trkpt lat="42.60673" lon="2.08831">
        <ele>1584</ele>
        <time>2021-11-03T10:29:16Z</time>
      </trkpt>
      <trkpt lat="42.60642" lon="2.08789">
        <ele>1585</ele>
        <time>2021-11-03T10:29:16Z</time>
      </trkpt>
      <trkpt lat="42.60608" lon="2.08761">
        <ele>1587</ele>
        <time>2021-11-03T10:29:16Z</time>
      </trkpt>
      <trkpt lat="42.6057" lon="2.0874">
        <ele>1590</ele>
        <time>2021-11-03T10:29:16Z</time>
      </trkpt>
      <trkpt lat="42.6054" lon="2.08725">
        <ele>1592</ele>
        <time>2021-11-03T10:29:16Z</time>
      </trkpt>
      <trkpt lat="42.60508" lon="2.08693">
        <ele>1593</ele>
        <time>2021-11-03T10:29:16Z</time>
      </trkpt>
      <trkpt lat="42.6052" lon="2.08659">
        <ele>1591</ele>
        <time>2021-11-03T10:29:16Z</time>
      </trkpt>
      <trkpt lat="42.60554" lon="2.08616">
        <ele>1588</ele>
        <time>2021-11-03T10:29:16Z</time>
      </trkpt>
      <trkpt lat="42.6058" lon="2.08497">
        <ele>1587</ele>
        <time>2021-11-03T10:29:16Z</time>
      </trkpt>
      <trkpt lat="42.60551" lon="2.08461">
        <ele>1588</ele>
        <time>2021-11-03T10:29:16Z</time>
      </trkpt>
      <trkpt lat="42.60517" lon="2.08458">
        <ele>1589</ele>
        <time>2021-11-03T10:29:16Z</time>
      </trkpt>
      <trkpt lat="42.60504" lon="2.08422">
        <ele>1590</ele>
        <time>2021-11-03T10:29:16Z</time>
      </trkpt>
      <trkpt lat="42.60503" lon="2.08399">
        <ele>1590</ele>
        <time>2021-11-03T10:29:16Z</time>
      </trkpt>
      <trkpt lat="42.60416" lon="2.08379">
        <ele>1593</ele>
        <time>2021-11-03T10:29:16Z</time>
      </trkpt>
      <trkpt lat="42.60371" lon="2.08377">
        <ele>1596</ele>
        <time>2021-11-03T10:29:16Z</time>
      </trkpt>
      <trkpt lat="42.6032" lon="2.08355">
        <ele>1599</ele>
        <time>2021-11-03T10:29:16Z</time>
      </trkpt>
      <trkpt lat="42.60284" lon="2.08328">
        <ele>1599</ele>
        <time>2021-11-03T10:29:16Z</time>
      </trkpt>
      <trkpt lat="42.60245" lon="2.08259">
        <ele>1599</ele>
        <time>2021-11-03T10:29:16Z</time>
      </trkpt>
      <trkpt lat="42.60234" lon="2.08219">
        <ele>1600</ele>
        <time>2021-11-03T10:29:16Z</time>
      </trkpt>
      <trkpt lat="42.60241" lon="2.08167">
        <ele>1601</ele>
        <time>2021-11-03T10:29:16Z</time>
      </trkpt>
      <trkpt lat="42.60254" lon="2.08097">
        <ele>1604</ele>
        <time>2021-11-03T10:29:16Z</time>
      </trkpt>
      <trkpt lat="42.60218" lon="2.08085">
        <ele>1609</ele>
        <time>2021-11-03T10:29:16Z</time>
      </trkpt>
      <trkpt lat="42.602" lon="2.08055">
        <ele>1614</ele>
        <time>2021-11-03T10:29:16Z</time>
      </trkpt>
      <trkpt lat="42.60173" lon="2.08055">
        <ele>1618</ele>
        <time>2021-11-03T10:29:16Z</time>
      </trkpt>
      <trkpt lat="42.60146" lon="2.08083">
        <ele>1619</ele>
        <time>2021-11-03T10:29:16Z</time>
      </trkpt>
      <trkpt lat="42.60119" lon="2.08107">
        <ele>1622</ele>
        <time>2021-11-03T10:29:16Z</time>
      </trkpt>
      <trkpt lat="42.60092" lon="2.0808">
        <ele>1628</ele>
        <time>2021-11-03T10:29:16Z</time>
      </trkpt>
      <trkpt lat="42.60096" lon="2.08043">
        <ele>1627</ele>
        <time>2021-11-03T10:29:16Z</time>
      </trkpt>
      <trkpt lat="42.60074" lon="2.0804">
        <ele>1630</ele>
        <time>2021-11-03T10:29:16Z</time>
      </trkpt>
      <trkpt lat="42.60034" lon="2.08068">
        <ele>1635</ele>
        <time>2021-11-03T10:29:16Z</time>
      </trkpt>
      <trkpt lat="42.6" lon="2.08065">
        <ele>1638</ele>
        <time>2021-11-03T10:29:16Z</time>
      </trkpt>
      <trkpt lat="42.59912" lon="2.08023">
        <ele>1641</ele>
        <time>2021-11-03T10:29:16Z</time>
      </trkpt>
      <trkpt lat="42.5987" lon="2.0795">
        <ele>1642</ele>
        <time>2021-11-03T10:29:16Z</time>
      </trkpt>
      <trkpt lat="42.59881" lon="2.07893">
        <ele>1642</ele>
        <time>2021-11-03T10:29:16Z</time>
      </trkpt>
      <trkpt lat="42.59865" lon="2.07774">
        <ele>1643</ele>
        <time>2021-11-03T10:29:16Z</time>
      </trkpt>
      <trkpt lat="42.59835" lon="2.07704">
        <ele>1645</ele>
        <time>2021-11-03T10:29:16Z</time>
      </trkpt>
      <trkpt lat="42.59811" lon="2.07666">
        <ele>1647</ele>
        <time>2021-11-03T10:29:16Z</time>
      </trkpt>
      <trkpt lat="42.59785" lon="2.07638">
        <ele>1649</ele>
        <time>2021-11-03T10:29:16Z</time>
      </trkpt>
      <trkpt lat="42.59747" lon="2.07632">
        <ele>1653</ele>
        <time>2021-11-03T10:29:16Z</time>
      </trkpt>
      <trkpt lat="42.59691" lon="2.07655">
        <ele>1662</ele>
        <time>2021-11-03T10:29:16Z</time>
      </trkpt>
      <trkpt lat="42.59703" lon="2.07629">
        <ele>1660</ele>
        <time>2021-11-03T10:29:16Z</time>
      </trkpt>
      <trkpt lat="42.5972" lon="2.07605">
        <ele>1658</ele>
        <time>2021-11-03T10:29:16Z</time>
      </trkpt>
      <trkpt lat="42.59715" lon="2.07573">
        <ele>1658</ele>
        <time>2021-11-03T10:29:16Z</time>
      </trkpt>
      <trkpt lat="42.59668" lon="2.07506">
        <ele>1659</ele>
        <time>2021-11-03T10:29:16Z</time>
      </trkpt>
      <trkpt lat="42.59669" lon="2.07479">
        <ele>1658</ele>
        <time>2021-11-03T10:29:16Z</time>
      </trkpt>
      <trkpt lat="42.59688" lon="2.0745">
        <ele>1656</ele>
        <time>2021-11-03T10:29:16Z</time>
      </trkpt>
      <trkpt lat="42.59723" lon="2.0741">
        <ele>1654</ele>
        <time>2021-11-03T10:29:16Z</time>
      </trkpt>
      <trkpt lat="42.59724" lon="2.07293">
        <ele>1655</ele>
        <time>2021-11-03T10:29:16Z</time>
      </trkpt>
      <trkpt lat="42.59751" lon="2.0724">
        <ele>1655</ele>
        <time>2021-11-03T10:29:16Z</time>
      </trkpt>
      <trkpt lat="42.59762" lon="2.072">
        <ele>1655</ele>
        <time>2021-11-03T10:29:16Z</time>
      </trkpt>
      <trkpt lat="42.59762" lon="2.0713">
        <ele>1657</ele>
        <time>2021-11-03T10:29:16Z</time>
      </trkpt>
      <trkpt lat="42.59764" lon="2.07074">
        <ele>1661</ele>
        <time>2021-11-03T10:29:16Z</time>
      </trkpt>
      <trkpt lat="42.59762" lon="2.0703">
        <ele>1664</ele>
        <time>2021-11-03T10:29:16Z</time>
      </trkpt>
      <trkpt lat="42.59724" lon="2.06988">
        <ele>1662</ele>
        <time>2021-11-03T10:29:16Z</time>
      </trkpt>
      <trkpt lat="42.59667" lon="2.06964">
        <ele>1661</ele>
        <time>2021-11-03T10:29:16Z</time>
      </trkpt>
      <trkpt lat="42.59622" lon="2.06958">
        <ele>1662</ele>
        <time>2021-11-03T10:29:16Z</time>
      </trkpt>
      <trkpt lat="42.59598" lon="2.06946">
        <ele>1664</ele>
        <time>2021-11-03T10:29:16Z</time>
      </trkpt>
      <trkpt lat="42.59569" lon="2.06946">
        <ele>1663</ele>
        <time>2021-11-03T10:29:16Z</time>
      </trkpt>
      <trkpt lat="42.59519" lon="2.06922">
        <ele>1664</ele>
        <time>2021-11-03T10:29:16Z</time>
      </trkpt>
      <trkpt lat="42.5949" lon="2.06901">
        <ele>1666</ele>
        <time>2021-11-03T10:29:16Z</time>
      </trkpt>
      <trkpt lat="42.59487" lon="2.0687">
        <ele>1670</ele>
        <time>2021-11-03T10:29:16Z</time>
      </trkpt>
      <trkpt lat="42.59505" lon="2.06867">
        <ele>1672</ele>
        <time>2021-11-03T10:29:16Z</time>
      </trkpt>
      <trkpt lat="42.59537" lon="2.06873">
        <ele>1674</ele>
        <time>2021-11-03T10:29:16Z</time>
      </trkpt>
      <trkpt lat="42.59566" lon="2.06879">
        <ele>1676</ele>
        <time>2021-11-03T10:29:16Z</time>
      </trkpt>
      <trkpt lat="42.59593" lon="2.06882">
        <ele>1678</ele>
        <time>2021-11-03T10:29:16Z</time>
      </trkpt>
      <trkpt lat="42.59622" lon="2.06882">
        <ele>1680</ele>
        <time>2021-11-03T10:29:16Z</time>
      </trkpt>
      <trkpt lat="42.59714" lon="2.06903">
        <ele>1683</ele>
        <time>2021-11-03T10:29:16Z</time>
      </trkpt>
      <trkpt lat="42.59777" lon="2.06918">
        <ele>1687</ele>
        <time>2021-11-03T10:29:16Z</time>
      </trkpt>
      <trkpt lat="42.59827" lon="2.06933">
        <ele>1689</ele>
        <time>2021-11-03T10:29:16Z</time>
      </trkpt>
      <trkpt lat="42.59864" lon="2.06919">
        <ele>1690</ele>
        <time>2021-11-03T10:29:16Z</time>
      </trkpt>
      <trkpt lat="42.59876" lon="2.06874">
        <ele>1693</ele>
        <time>2021-11-03T10:29:16Z</time>
      </trkpt>
      <trkpt lat="42.59844" lon="2.06838">
        <ele>1701</ele>
        <time>2021-11-03T10:29:16Z</time>
      </trkpt>
      <trkpt lat="42.59844" lon="2.06802">
        <ele>1704</ele>
        <time>2021-11-03T10:29:16Z</time>
      </trkpt>
      <trkpt lat="42.59851" lon="2.06765">
        <ele>1707</ele>
        <time>2021-11-03T10:29:16Z</time>
      </trkpt>
      <trkpt lat="42.5986" lon="2.06726">
        <ele>1710</ele>
        <time>2021-11-03T10:29:16Z</time>
      </trkpt>
      <trkpt lat="42.59873" lon="2.0668">
        <ele>1714</ele>
        <time>2021-11-03T10:29:16Z</time>
      </trkpt>
      <trkpt lat="42.59893" lon="2.06601">
        <ele>1718</ele>
        <time>2021-11-03T10:29:16Z</time>
      </trkpt>
      <trkpt lat="42.599" lon="2.06546">
        <ele>1721</ele>
        <time>2021-11-03T10:29:16Z</time>
      </trkpt>
      <trkpt lat="42.59897" lon="2.06507">
        <ele>1724</ele>
        <time>2021-11-03T10:29:16Z</time>
      </trkpt>
      <trkpt lat="42.59904" lon="2.06461">
        <ele>1722</ele>
        <time>2021-11-03T10:29:16Z</time>
      </trkpt>
      <trkpt lat="42.59895" lon="2.06419">
        <ele>1726</ele>
        <time>2021-11-03T10:29:16Z</time>
      </trkpt>
      <trkpt lat="42.59899" lon="2.06337">
        <ele>1731</ele>
        <time>2021-11-03T10:29:16Z</time>
      </trkpt>
      <trkpt lat="42.59904" lon="2.06264">
        <ele>1738</ele>
        <time>2021-11-03T10:29:16Z</time>
      </trkpt>
      <trkpt lat="42.59908" lon="2.06206">
        <ele>1745</ele>
        <time>2021-11-03T10:29:16Z</time>
      </trkpt>
      <trkpt lat="42.59923" lon="2.06151">
        <ele>1748</ele>
        <time>2021-11-03T10:29:16Z</time>
      </trkpt>
      <trkpt lat="42.59943" lon="2.0609">
        <ele>1750</ele>
        <time>2021-11-03T10:29:16Z</time>
      </trkpt>
      <trkpt lat="42.59968" lon="2.06011">
        <ele>1758</ele>
        <time>2021-11-03T10:29:16Z</time>
      </trkpt>
      <trkpt lat="42.59984" lon="2.05962">
        <ele>1763</ele>
        <time>2021-11-03T10:29:16Z</time>
      </trkpt>
      <trkpt lat="42.60017" lon="2.05932">
        <ele>1768</ele>
        <time>2021-11-03T10:29:16Z</time>
      </trkpt>
      <trkpt lat="42.60069" lon="2.0592">
        <ele>1762</ele>
        <time>2021-11-03T10:29:16Z</time>
      </trkpt>
      <trkpt lat="42.60096" lon="2.05868">
        <ele>1769</ele>
        <time>2021-11-03T10:29:16Z</time>
      </trkpt>
      <trkpt lat="42.60113" lon="2.05843">
        <ele>1771</ele>
        <time>2021-11-03T10:29:16Z</time>
      </trkpt>
      <trkpt lat="42.60136" lon="2.05792">
        <ele>1779</ele>
        <time>2021-11-03T10:29:16Z</time>
      </trkpt>
      <trkpt lat="42.60167" lon="2.05691">
        <ele>1783</ele>
        <time>2021-11-03T10:29:16Z</time>
      </trkpt>
      <trkpt lat="42.60169" lon="2.05658">
        <ele>1787</ele>
        <time>2021-11-03T10:29:16Z</time>
      </trkpt>
      <trkpt lat="42.6018" lon="2.05615">
        <ele>1792</ele>
        <time>2021-11-03T10:29:16Z</time>
      </trkpt>
      <trkpt lat="42.60203" lon="2.056">
        <ele>1788</ele>
        <time>2021-11-03T10:29:16Z</time>
      </trkpt>
      <trkpt lat="42.60212" lon="2.0556">
        <ele>1795</ele>
        <time>2021-11-03T10:29:16Z</time>
      </trkpt>
      <trkpt lat="42.60223" lon="2.05515">
        <ele>1800</ele>
        <time>2021-11-03T10:29:16Z</time>
      </trkpt>
      <trkpt lat="42.60245" lon="2.05451">
        <ele>1804</ele>
        <time>2021-11-03T10:29:16Z</time>
      </trkpt>
      <trkpt lat="42.60252" lon="2.05417">
        <ele>1808</ele>
        <time>2021-11-03T10:29:16Z</time>
      </trkpt>
      <trkpt lat="42.60265" lon="2.05387">
        <ele>1807</ele>
        <time>2021-11-03T10:29:16Z</time>
      </trkpt>
      <trkpt lat="42.60274" lon="2.05347">
        <ele>1812</ele>
        <time>2021-11-03T10:29:16Z</time>
      </trkpt>
      <trkpt lat="42.60292" lon="2.05317">
        <ele>1812</ele>
        <time>2021-11-03T10:29:16Z</time>
      </trkpt>
      <trkpt lat="42.60314" lon="2.05283">
        <ele>1815</ele>
        <time>2021-11-03T10:29:16Z</time>
      </trkpt>
      <trkpt lat="42.60336" lon="2.05268">
        <ele>1815</ele>
        <time>2021-11-03T10:29:16Z</time>
      </trkpt>
      <trkpt lat="42.60359" lon="2.05244">
        <ele>1820</ele>
        <time>2021-11-03T10:29:16Z</time>
      </trkpt>
      <trkpt lat="42.60359" lon="2.0521">
        <ele>1832</ele>
        <time>2021-11-03T10:29:16Z</time>
      </trkpt>
      <trkpt lat="42.60323" lon="2.05222">
        <ele>1837</ele>
        <time>2021-11-03T10:29:16Z</time>
      </trkpt>
      <trkpt lat="42.60269" lon="2.0525">
        <ele>1843</ele>
        <time>2021-11-03T10:29:16Z</time>
      </trkpt>
      <trkpt lat="42.6024" lon="2.05284">
        <ele>1843</ele>
        <time>2021-11-03T10:29:16Z</time>
      </trkpt>
      <trkpt lat="42.60222" lon="2.0532">
        <ele>1843</ele>
        <time>2021-11-03T10:29:16Z</time>
      </trkpt>
      <trkpt lat="42.60204" lon="2.05345">
        <ele>1847</ele>
        <time>2021-11-03T10:29:16Z</time>
      </trkpt>
      <trkpt lat="42.60189" lon="2.05381">
        <ele>1846</ele>
        <time>2021-11-03T10:29:16Z</time>
      </trkpt>
      <trkpt lat="42.60155" lon="2.05424">
        <ele>1848</ele>
        <time>2021-11-03T10:29:16Z</time>
      </trkpt>
      <trkpt lat="42.60126" lon="2.05448">
        <ele>1850</ele>
        <time>2021-11-03T10:29:16Z</time>
      </trkpt>
      <trkpt lat="42.59994" lon="2.05522">
        <ele>1853</ele>
        <time>2021-11-03T10:29:16Z</time>
      </trkpt>
      <trkpt lat="42.59969" lon="2.05546">
        <ele>1853</ele>
        <time>2021-11-03T10:29:16Z</time>
      </trkpt>
      <trkpt lat="42.59942" lon="2.05619">
        <ele>1851</ele>
        <time>2021-11-03T10:29:16Z</time>
      </trkpt>
      <trkpt lat="42.59933" lon="2.0565">
        <ele>1849</ele>
        <time>2021-11-03T10:29:16Z</time>
      </trkpt>
      <trkpt lat="42.59918" lon="2.05692">
        <ele>1846</ele>
        <time>2021-11-03T10:29:16Z</time>
      </trkpt>
      <trkpt lat="42.59895" lon="2.05732">
        <ele>1841</ele>
        <time>2021-11-03T10:29:16Z</time>
      </trkpt>
      <trkpt lat="42.59842" lon="2.05769">
        <ele>1838</ele>
        <time>2021-11-03T10:29:16Z</time>
      </trkpt>
      <trkpt lat="42.59817" lon="2.05775">
        <ele>1838</ele>
        <time>2021-11-03T10:29:16Z</time>
      </trkpt>
      <trkpt lat="42.59743" lon="2.05775">
        <ele>1840</ele>
        <time>2021-11-03T10:29:16Z</time>
      </trkpt>
      <trkpt lat="42.59716" lon="2.05794">
        <ele>1838</ele>
        <time>2021-11-03T10:29:16Z</time>
      </trkpt>
      <trkpt lat="42.59698" lon="2.05821">
        <ele>1836</ele>
        <time>2021-11-03T10:29:16Z</time>
      </trkpt>
      <trkpt lat="42.59584" lon="2.0597">
        <ele>1833</ele>
        <time>2021-11-03T10:29:16Z</time>
      </trkpt>
      <trkpt lat="42.59555" lon="2.05992">
        <ele>1835</ele>
        <time>2021-11-03T10:29:16Z</time>
      </trkpt>
      <trkpt lat="42.59515" lon="2.06032">
        <ele>1837</ele>
        <time>2021-11-03T10:29:16Z</time>
      </trkpt>
      <trkpt lat="42.5949" lon="2.06053">
        <ele>1840</ele>
        <time>2021-11-03T10:29:16Z</time>
      </trkpt>
      <trkpt lat="42.59403" lon="2.0619">
        <ele>1841</ele>
        <time>2021-11-03T10:29:16Z</time>
      </trkpt>
      <trkpt lat="42.59378" lon="2.06248">
        <ele>1828</ele>
        <time>2021-11-03T10:29:16Z</time>
      </trkpt>
      <trkpt lat="42.59358" lon="2.0623">
        <ele>1832</ele>
        <time>2021-11-03T10:29:16Z</time>
      </trkpt>
      <trkpt lat="42.59261" lon="2.0613">
        <ele>1833</ele>
        <time>2021-11-03T10:29:16Z</time>
      </trkpt>
      <trkpt lat="42.59221" lon="2.06094">
        <ele>1826</ele>
        <time>2021-11-03T10:29:16Z</time>
      </trkpt>
      <trkpt lat="42.59191" lon="2.06067">
        <ele>1823</ele>
        <time>2021-11-03T10:29:16Z</time>
      </trkpt>
      <trkpt lat="42.59158" lon="2.06024">
        <ele>1821</ele>
        <time>2021-11-03T10:29:16Z</time>
      </trkpt>
      <trkpt lat="42.59137" lon="2.0596">
        <ele>1822</ele>
        <time>2021-11-03T10:29:16Z</time>
      </trkpt>
      <trkpt lat="42.59135" lon="2.05921">
        <ele>1821</ele>
        <time>2021-11-03T10:29:16Z</time>
      </trkpt>
      <trkpt lat="42.59133" lon="2.05872">
        <ele>1819</ele>
        <time>2021-11-03T10:29:16Z</time>
      </trkpt>
      <trkpt lat="42.59132" lon="2.05833">
        <ele>1816</ele>
        <time>2021-11-03T10:29:16Z</time>
      </trkpt>
      <trkpt lat="42.59163" lon="2.05687">
        <ele>1815</ele>
        <time>2021-11-03T10:29:16Z</time>
      </trkpt>
      <trkpt lat="42.59163" lon="2.05647">
        <ele>1813</ele>
        <time>2021-11-03T10:29:16Z</time>
      </trkpt>
      <trkpt lat="42.59148" lon="2.05611">
        <ele>1805</ele>
        <time>2021-11-03T10:29:16Z</time>
      </trkpt>
      <trkpt lat="42.59138" lon="2.05562">
        <ele>1799</ele>
        <time>2021-11-03T10:29:16Z</time>
      </trkpt>
      <trkpt lat="42.59154" lon="2.05489">
        <ele>1800</ele>
        <time>2021-11-03T10:29:16Z</time>
      </trkpt>
      <trkpt lat="42.59156" lon="2.05444">
        <ele>1798</ele>
        <time>2021-11-03T10:29:16Z</time>
      </trkpt>
      <trkpt lat="42.59147" lon="2.05392">
        <ele>1793</ele>
        <time>2021-11-03T10:29:16Z</time>
      </trkpt>
      <trkpt lat="42.59147" lon="2.05292">
        <ele>1789</ele>
        <time>2021-11-03T10:29:16Z</time>
      </trkpt>
      <trkpt lat="42.59129" lon="2.05265">
        <ele>1782</ele>
        <time>2021-11-03T10:29:16Z</time>
      </trkpt>
      <trkpt lat="42.59111" lon="2.05244">
        <ele>1779</ele>
        <time>2021-11-03T10:29:16Z</time>
      </trkpt>
      <trkpt lat="42.5909" lon="2.05213">
        <ele>1776</ele>
        <time>2021-11-03T10:29:16Z</time>
      </trkpt>
      <trkpt lat="42.59061" lon="2.05183">
        <ele>1783</ele>
        <time>2021-11-03T10:29:16Z</time>
      </trkpt>
      <trkpt lat="42.59032" lon="2.05168">
        <ele>1790</ele>
        <time>2021-11-03T10:29:16Z</time>
      </trkpt>
      <trkpt lat="42.59007" lon="2.05156">
        <ele>1795</ele>
        <time>2021-11-03T10:29:16Z</time>
      </trkpt>
      <trkpt lat="42.58953" lon="2.05165">
        <ele>1787</ele>
        <time>2021-11-03T10:29:16Z</time>
      </trkpt>
      <trkpt lat="42.58917" lon="2.05184">
        <ele>1783</ele>
        <time>2021-11-03T10:29:16Z</time>
      </trkpt>
      <trkpt lat="42.58897" lon="2.05208">
        <ele>1774</ele>
        <time>2021-11-03T10:29:16Z</time>
      </trkpt>
      <trkpt lat="42.58855" lon="2.05205">
        <ele>1774</ele>
        <time>2021-11-03T10:29:16Z</time>
      </trkpt>
      <trkpt lat="42.58825" lon="2.05221">
        <ele>1772</ele>
        <time>2021-11-03T10:29:16Z</time>
      </trkpt>
      <trkpt lat="42.58774" lon="2.05215">
        <ele>1760</ele>
        <time>2021-11-03T10:29:16Z</time>
      </trkpt>
      <trkpt lat="42.58758" lon="2.05239">
        <ele>1757</ele>
        <time>2021-11-03T10:29:16Z</time>
      </trkpt>
      <trkpt lat="42.58713" lon="2.05291">
        <ele>1754</ele>
        <time>2021-11-03T10:29:16Z</time>
      </trkpt>
      <trkpt lat="42.58684" lon="2.053">
        <ele>1752</ele>
        <time>2021-11-03T10:29:16Z</time>
      </trkpt>
      <trkpt lat="42.58653" lon="2.05304">
        <ele>1757</ele>
        <time>2021-11-03T10:29:16Z</time>
      </trkpt>
      <trkpt lat="42.5864" lon="2.05361">
        <ele>1756</ele>
        <time>2021-11-03T10:29:16Z</time>
      </trkpt>
      <trkpt lat="42.58635" lon="2.05413">
        <ele>1753</ele>
        <time>2021-11-03T10:29:16Z</time>
      </trkpt>
      <trkpt lat="42.58599" lon="2.05489">
        <ele>1750</ele>
        <time>2021-11-03T10:29:16Z</time>
      </trkpt>
      <trkpt lat="42.58582" lon="2.05523">
        <ele>1746</ele>
        <time>2021-11-03T10:29:16Z</time>
      </trkpt>
      <trkpt lat="42.58508" lon="2.05532">
        <ele>1747</ele>
        <time>2021-11-03T10:29:16Z</time>
      </trkpt>
      <trkpt lat="42.58483" lon="2.05547">
        <ele>1751</ele>
        <time>2021-11-03T10:29:16Z</time>
      </trkpt>
      <trkpt lat="42.58474" lon="2.0562">
        <ele>1745</ele>
        <time>2021-11-03T10:29:16Z</time>
      </trkpt>
      <trkpt lat="42.58465" lon="2.05648">
        <ele>1743</ele>
        <time>2021-11-03T10:29:16Z</time>
      </trkpt>
      <trkpt lat="42.58461" lon="2.05705">
        <ele>1740</ele>
        <time>2021-11-03T10:29:16Z</time>
      </trkpt>
      <trkpt lat="42.58441" lon="2.0576">
        <ele>1743</ele>
        <time>2021-11-03T10:29:16Z</time>
      </trkpt>
      <trkpt lat="42.58427" lon="2.05812">
        <ele>1746</ele>
        <time>2021-11-03T10:29:16Z</time>
      </trkpt>
      <trkpt lat="42.58425" lon="2.0587">
        <ele>1746</ele>
        <time>2021-11-03T10:29:16Z</time>
      </trkpt>
      <trkpt lat="42.58417" lon="2.05985">
        <ele>1748</ele>
        <time>2021-11-03T10:29:16Z</time>
      </trkpt>
      <trkpt lat="42.5843" lon="2.06052">
        <ele>1746</ele>
        <time>2021-11-03T10:29:16Z</time>
      </trkpt>
      <trkpt lat="42.58435" lon="2.06116">
        <ele>1751</ele>
        <time>2021-11-03T10:29:16Z</time>
      </trkpt>
      <trkpt lat="42.58453" lon="2.06179">
        <ele>1752</ele>
        <time>2021-11-03T10:29:16Z</time>
      </trkpt>
      <trkpt lat="42.58537" lon="2.06328">
        <ele>1744</ele>
        <time>2021-11-03T10:29:16Z</time>
      </trkpt>
      <trkpt lat="42.58559" lon="2.06398">
        <ele>1748</ele>
        <time>2021-11-03T10:29:16Z</time>
      </trkpt>
      <trkpt lat="42.5858" lon="2.06464">
        <ele>1750</ele>
        <time>2021-11-03T10:29:16Z</time>
      </trkpt>
      <trkpt lat="42.58611" lon="2.06577">
        <ele>1751</ele>
        <time>2021-11-03T10:29:16Z</time>
      </trkpt>
      <trkpt lat="42.58645" lon="2.06686">
        <ele>1752</ele>
        <time>2021-11-03T10:29:16Z</time>
      </trkpt>
      <trkpt lat="42.58684" lon="2.06762">
        <ele>1754</ele>
        <time>2021-11-03T10:29:16Z</time>
      </trkpt>
      <trkpt lat="42.58704" lon="2.06819">
        <ele>1756</ele>
        <time>2021-11-03T10:29:16Z</time>
      </trkpt>
      <trkpt lat="42.58713" lon="2.06862">
        <ele>1759</ele>
        <time>2021-11-03T10:29:16Z</time>
      </trkpt>
      <trkpt lat="42.58727" lon="2.06919">
        <ele>1762</ele>
        <time>2021-11-03T10:29:16Z</time>
      </trkpt>
      <trkpt lat="42.58727" lon="2.06983">
        <ele>1768</ele>
        <time>2021-11-03T10:29:16Z</time>
      </trkpt>
      <trkpt lat="42.58745" lon="2.07059">
        <ele>1773</ele>
        <time>2021-11-03T10:29:16Z</time>
      </trkpt>
      <trkpt lat="42.58772" lon="2.07077">
        <ele>1769</ele>
        <time>2021-11-03T10:29:16Z</time>
      </trkpt>
      <trkpt lat="42.5879" lon="2.07107">
        <ele>1768</ele>
        <time>2021-11-03T10:29:16Z</time>
      </trkpt>
      <trkpt lat="42.58819" lon="2.07141">
        <ele>1766</ele>
        <time>2021-11-03T10:29:16Z</time>
      </trkpt>
      <trkpt lat="42.58864" lon="2.07232">
        <ele>1764</ele>
        <time>2021-11-03T10:29:16Z</time>
      </trkpt>
      <trkpt lat="42.58903" lon="2.07291">
        <ele>1758</ele>
        <time>2021-11-03T10:29:16Z</time>
      </trkpt>
      <trkpt lat="42.58933" lon="2.07339">
        <ele>1756</ele>
        <time>2021-11-03T10:29:16Z</time>
      </trkpt>
      <trkpt lat="42.58954" lon="2.07406">
        <ele>1758</ele>
        <time>2021-11-03T10:29:16Z</time>
      </trkpt>
      <trkpt lat="42.59001" lon="2.07497">
        <ele>1758</ele>
        <time>2021-11-03T10:29:16Z</time>
      </trkpt>
      <trkpt lat="42.59012" lon="2.07545">
        <ele>1759</ele>
        <time>2021-11-03T10:29:16Z</time>
      </trkpt>
      <trkpt lat="42.59077" lon="2.07755">
        <ele>1756</ele>
        <time>2021-11-03T10:29:16Z</time>
      </trkpt>
      <trkpt lat="42.59116" lon="2.07871">
        <ele>1754</ele>
        <time>2021-11-03T10:29:16Z</time>
      </trkpt>
      <trkpt lat="42.59127" lon="2.07938">
        <ele>1755</ele>
        <time>2021-11-03T10:29:16Z</time>
      </trkpt>
      <trkpt lat="42.59164" lon="2.08022">
        <ele>1754</ele>
        <time>2021-11-03T10:29:16Z</time>
      </trkpt>
      <trkpt lat="42.59185" lon="2.08069">
        <ele>1752</ele>
        <time>2021-11-03T10:29:16Z</time>
      </trkpt>
      <trkpt lat="42.59204" lon="2.08163">
        <ele>1751</ele>
        <time>2021-11-03T10:29:16Z</time>
      </trkpt>
      <trkpt lat="42.59219" lon="2.08201">
        <ele>1747</ele>
        <time>2021-11-03T10:29:16Z</time>
      </trkpt>
      <trkpt lat="42.59236" lon="2.08228">
        <ele>1744</ele>
        <time>2021-11-03T10:29:16Z</time>
      </trkpt>
      <trkpt lat="42.59257" lon="2.08254">
        <ele>1742</ele>
        <time>2021-11-03T10:29:16Z</time>
      </trkpt>
      <trkpt lat="42.59278" lon="2.08264">
        <ele>1740</ele>
        <time>2021-11-03T10:29:16Z</time>
      </trkpt>
      <trkpt lat="42.5931" lon="2.08304">
        <ele>1737</ele>
        <time>2021-11-03T10:29:16Z</time>
      </trkpt>
      <trkpt lat="42.59317" lon="2.08334">
        <ele>1738</ele>
        <time>2021-11-03T10:29:16Z</time>
      </trkpt>
      <trkpt lat="42.59333" lon="2.08431">
        <ele>1739</ele>
        <time>2021-11-03T10:29:16Z</time>
      </trkpt>
      <trkpt lat="42.59356" lon="2.08461">
        <ele>1737</ele>
        <time>2021-11-03T10:29:16Z</time>
      </trkpt>
      <trkpt lat="42.59406" lon="2.08493">
        <ele>1734</ele>
        <time>2021-11-03T10:29:16Z</time>
      </trkpt>
      <trkpt lat="42.59477" lon="2.08563">
        <ele>1730</ele>
        <time>2021-11-03T10:29:16Z</time>
      </trkpt>
      <trkpt lat="42.59506" lon="2.08585">
        <ele>1728</ele>
        <time>2021-11-03T10:29:16Z</time>
      </trkpt>
      <trkpt lat="42.59589" lon="2.08606">
        <ele>1727</ele>
        <time>2021-11-03T10:29:16Z</time>
      </trkpt>
      <trkpt lat="42.59628" lon="2.08629">
        <ele>1725</ele>
        <time>2021-11-03T10:29:16Z</time>
      </trkpt>
      <trkpt lat="42.59668" lon="2.08668">
        <ele>1722</ele>
        <time>2021-11-03T10:29:16Z</time>
      </trkpt>
      <trkpt lat="42.59706" lon="2.08689">
        <ele>1718</ele>
        <time>2021-11-03T10:29:16Z</time>
      </trkpt>
      <trkpt lat="42.59732" lon="2.08704">
        <ele>1716</ele>
        <time>2021-11-03T10:29:16Z</time>
      </trkpt>
      <trkpt lat="42.59761" lon="2.08736">
        <ele>1715</ele>
        <time>2021-11-03T10:29:16Z</time>
      </trkpt>
      <trkpt lat="42.5979" lon="2.08759">
        <ele>1712</ele>
        <time>2021-11-03T10:29:16Z</time>
      </trkpt>
      <trkpt lat="42.59826" lon="2.08788">
        <ele>1707</ele>
        <time>2021-11-03T10:29:16Z</time>
      </trkpt>
      <trkpt lat="42.5984" lon="2.08825">
        <ele>1705</ele>
        <time>2021-11-03T10:29:16Z</time>
      </trkpt>
      <trkpt lat="42.59863" lon="2.0891">
        <ele>1704</ele>
        <time>2021-11-03T10:29:16Z</time>
      </trkpt>
      <trkpt lat="42.59894" lon="2.08957">
        <ele>1700</ele>
        <time>2021-11-03T10:29:16Z</time>
      </trkpt>
      <trkpt lat="42.59941" lon="2.08988">
        <ele>1700</ele>
        <time>2021-11-03T10:29:16Z</time>
      </trkpt>
      <trkpt lat="42.59976" lon="2.09006">
        <ele>1695</ele>
        <time>2021-11-03T10:29:16Z</time>
      </trkpt>
      <trkpt lat="42.60005" lon="2.0903">
        <ele>1691</ele>
        <time>2021-11-03T10:29:16Z</time>
      </trkpt>
      <trkpt lat="42.60024" lon="2.09056">
        <ele>1688</ele>
        <time>2021-11-03T10:29:16Z</time>
      </trkpt>
      <trkpt lat="42.6009" lon="2.09083">
        <ele>1685</ele>
        <time>2021-11-03T10:29:16Z</time>
      </trkpt>
      <trkpt lat="42.60097" lon="2.09095">
        <ele>1684</ele>
        <time>2021-11-03T10:29:16Z</time>
      </trkpt>
      <trkpt lat="42.60095" lon="2.09113">
        <ele>1684</ele>
        <time>2021-11-03T10:29:16Z</time>
      </trkpt>
      <trkpt lat="42.6009" lon="2.09121">
        <ele>1683</ele>
        <time>2021-11-03T10:29:16Z</time>
      </trkpt>
      <trkpt lat="42.60136" lon="2.0914">
        <ele>1682</ele>
        <time>2021-11-03T10:29:16Z</time>
      </trkpt>
      <trkpt lat="42.60154" lon="2.09161">
        <ele>1680</ele>
        <time>2021-11-03T10:29:16Z</time>
      </trkpt>
      <trkpt lat="42.60164" lon="2.09187">
        <ele>1677</ele>
        <time>2021-11-03T10:29:16Z</time>
      </trkpt>
      <trkpt lat="42.60192" lon="2.09217">
        <ele>1675</ele>
        <time>2021-11-03T10:29:16Z</time>
      </trkpt>
      <trkpt lat="42.60226" lon="2.09243">
        <ele>1672</ele>
        <time>2021-11-03T10:29:16Z</time>
      </trkpt>
      <trkpt lat="42.60248" lon="2.09272">
        <ele>1668</ele>
        <time>2021-11-03T10:29:16Z</time>
      </trkpt>
      <trkpt lat="42.60269" lon="2.09308">
        <ele>1665</ele>
        <time>2021-11-03T10:29:16Z</time>
      </trkpt>
      <trkpt lat="42.60289" lon="2.09333">
        <ele>1663</ele>
        <time>2021-11-03T10:29:16Z</time>
      </trkpt>
      <trkpt lat="42.60318" lon="2.09354">
        <ele>1662</ele>
        <time>2021-11-03T10:29:16Z</time>
      </trkpt>
      <trkpt lat="42.6034" lon="2.09373">
        <ele>1659</ele>
        <time>2021-11-03T10:29:16Z</time>
      </trkpt>
      <trkpt lat="42.60365" lon="2.09407">
        <ele>1656</ele>
        <time>2021-11-03T10:29:16Z</time>
      </trkpt>
      <trkpt lat="42.60382" lon="2.09442">
        <ele>1649</ele>
        <time>2021-11-03T10:29:16Z</time>
      </trkpt>
      <trkpt lat="42.60396" lon="2.09487">
        <ele>1643</ele>
        <time>2021-11-03T10:29:16Z</time>
      </trkpt>
      <trkpt lat="42.60427" lon="2.0954">
        <ele>1633</ele>
        <time>2021-11-03T10:29:16Z</time>
      </trkpt>
      <trkpt lat="42.60466" lon="2.0959">
        <ele>1627</ele>
        <time>2021-11-03T10:29:16Z</time>
      </trkpt>
      <trkpt lat="42.60512" lon="2.09645">
        <ele>1622</ele>
        <time>2021-11-03T10:29:16Z</time>
      </trkpt>
      <trkpt lat="42.60541" lon="2.09686">
        <ele>1614</ele>
        <time>2021-11-03T10:29:16Z</time>
      </trkpt>
      <trkpt lat="42.60569" lon="2.09711">
        <ele>1610</ele>
        <time>2021-11-03T10:29:16Z</time>
      </trkpt>
      <trkpt lat="42.60601" lon="2.09726">
        <ele>1606</ele>
        <time>2021-11-03T10:29:16Z</time>
      </trkpt>
      <trkpt lat="42.60642" lon="2.09719">
        <ele>1605</ele>
        <time>2021-11-03T10:29:16Z</time>
      </trkpt>
      <trkpt lat="42.60663" lon="2.09715">
        <ele>1603</ele>
        <time>2021-11-03T10:29:16Z</time>
      </trkpt>
      <trkpt lat="42.6069" lon="2.09731">
        <ele>1597</ele>
        <time>2021-11-03T10:29:16Z</time>
      </trkpt>
      <trkpt lat="42.60724" lon="2.09732">
        <ele>1593</ele>
        <time>2021-11-03T10:29:16Z</time>
      </trkpt>
      <trkpt lat="42.60745" lon="2.09726">
        <ele>1592</ele>
        <time>2021-11-03T10:29:16Z</time>
      </trkpt>
      <trkpt lat="42.60766" lon="2.09707">
        <ele>1592</ele>
        <time>2021-11-03T10:29:16Z</time>
      </trkpt>
      <trkpt lat="42.60792" lon="2.09695">
        <ele>1592</ele>
        <time>2021-11-03T10:29:16Z</time>
      </trkpt>
      <trkpt lat="42.60819" lon="2.09695">
        <ele>1591</ele>
        <time>2021-11-03T10:29:16Z</time>
      </trkpt>
      <trkpt lat="42.60853" lon="2.09699">
        <ele>1589</ele>
        <time>2021-11-03T10:29:16Z</time>
      </trkpt>
      <trkpt lat="42.60891" lon="2.09724">
        <ele>1585</ele>
        <time>2021-11-03T10:29:16Z</time>
      </trkpt>
      <trkpt lat="42.60924" lon="2.09739">
        <ele>1582</ele>
        <time>2021-11-03T10:29:16Z</time>
      </trkpt>
      <trkpt lat="42.60951" lon="2.09737">
        <ele>1581</ele>
        <time>2021-11-03T10:29:16Z</time>
      </trkpt>
      <trkpt lat="42.6098" lon="2.09749">
        <ele>1579</ele>
        <time>2021-11-03T10:29:16Z</time>
      </trkpt>
      <trkpt lat="42.60994" lon="2.09761">
        <ele>1578</ele>
        <time>2021-11-03T10:29:16Z</time>
      </trkpt>
      <trkpt lat="42.60981" lon="2.09767">
        <ele>1579</ele>
        <time>2021-11-03T10:29:16Z</time>
      </trkpt>
      <trkpt lat="42.60958" lon="2.09763">
        <ele>1579</ele>
        <time>2021-11-03T10:29:16Z</time>
      </trkpt>
      <trkpt lat="42.60944" lon="2.09767">
        <ele>1579</ele>
        <time>2021-11-03T10:29:16Z</time>
      </trkpt>
      <trkpt lat="42.60928" lon="2.0979">
        <ele>1577</ele>
        <time>2021-11-03T10:29:16Z</time>
      </trkpt>
      <trkpt lat="42.60918" lon="2.09812">
        <ele>1575</ele>
        <time>2021-11-03T10:29:16Z</time>
      </trkpt>
      <trkpt lat="42.60899" lon="2.09816">
        <ele>1575</ele>
        <time>2021-11-03T10:29:16Z</time>
      </trkpt>
      <trkpt lat="42.60868" lon="2.09806">
        <ele>1577</ele>
        <time>2021-11-03T10:29:16Z</time>
      </trkpt>
      <trkpt lat="42.60835" lon="2.09797">
        <ele>1580</ele>
        <time>2021-11-03T10:29:16Z</time>
      </trkpt>
      <trkpt lat="42.60666" lon="2.09832">
        <ele>1580</ele>
        <time>2021-11-03T10:29:16Z</time>
      </trkpt>
      <trkpt lat="42.60641" lon="2.09845">
        <ele>1579</ele>
        <time>2021-11-03T10:29:16Z</time>
      </trkpt>
      <trkpt lat="42.60574" lon="2.09853">
        <ele>1579</ele>
        <time>2021-11-03T10:29:16Z</time>
      </trkpt>
      <trkpt lat="42.60492" lon="2.09847">
        <ele>1576</ele>
        <time>2021-11-03T10:29:16Z</time>
      </trkpt>
      <trkpt lat="42.60475" lon="2.09871">
        <ele>1573</ele>
        <time>2021-11-03T10:29:16Z</time>
      </trkpt>
      <trkpt lat="42.60463" lon="2.09905">
        <ele>1570</ele>
        <time>2021-11-03T10:29:16Z</time>
      </trkpt>
      <trkpt lat="42.60442" lon="2.09934">
        <ele>1568</ele>
        <time>2021-11-03T10:29:16Z</time>
      </trkpt>
      <trkpt lat="42.6041" lon="2.0995">
        <ele>1568</ele>
        <time>2021-11-03T10:29:16Z</time>
      </trkpt>
      <trkpt lat="42.60391" lon="2.09972">
        <ele>1567</ele>
        <time>2021-11-03T10:29:16Z</time>
      </trkpt>
      <trkpt lat="42.60389" lon="2.09996">
        <ele>1565</ele>
        <time>2021-11-03T10:29:16Z</time>
      </trkpt>
      <trkpt lat="42.6038" lon="2.10013">
        <ele>1564</ele>
        <time>2021-11-03T10:29:16Z</time>
      </trkpt>
      <trkpt lat="42.60368" lon="2.10014">
        <ele>1563</ele>
        <time>2021-11-03T10:29:16Z</time>
      </trkpt>
      <trkpt lat="42.60345" lon="2.0999">
        <ele>1564</ele>
        <time>2021-11-03T10:29:16Z</time>
      </trkpt>
      <trkpt lat="42.60325" lon="2.09948">
        <ele>1567</ele>
        <time>2021-11-03T10:29:16Z</time>
      </trkpt>
      <trkpt lat="42.60298" lon="2.09916">
        <ele>1571</ele>
        <time>2021-11-03T10:29:16Z</time>
      </trkpt>
      <trkpt lat="42.6028" lon="2.09908">
        <ele>1572</ele>
        <time>2021-11-03T10:29:16Z</time>
      </trkpt>
      <trkpt lat="42.60258" lon="2.09933">
        <ele>1569</ele>
        <time>2021-11-03T10:29:16Z</time>
      </trkpt>
      <trkpt lat="42.60245" lon="2.09928">
        <ele>1570</ele>
        <time>2021-11-03T10:29:16Z</time>
      </trkpt>
      <trkpt lat="42.60223" lon="2.09935">
        <ele>1570</ele>
        <time>2021-11-03T10:29:16Z</time>
      </trkpt>
      <trkpt lat="42.60215" lon="2.09947">
        <ele>1569</ele>
        <time>2021-11-03T10:29:16Z</time>
      </trkpt>
      <trkpt lat="42.60194" lon="2.09964">
        <ele>1569</ele>
        <time>2021-11-03T10:29:16Z</time>
      </trkpt>
      <trkpt lat="42.60154" lon="2.09967">
        <ele>1569</ele>
        <time>2021-11-03T10:29:16Z</time>
      </trkpt>
      <trkpt lat="42.6014" lon="2.09962">
        <ele>1570</ele>
        <time>2021-11-03T10:29:16Z</time>
      </trkpt>
      <trkpt lat="42.60087" lon="2.09972">
        <ele>1569</ele>
        <time>2021-11-03T10:29:16Z</time>
      </trkpt>
      <trkpt lat="42.60069" lon="2.09991">
        <ele>1568</ele>
        <time>2021-11-03T10:29:16Z</time>
      </trkpt>
      <trkpt lat="42.60058" lon="2.10023">
        <ele>1566</ele>
        <time>2021-11-03T10:29:16Z</time>
      </trkpt>
      <trkpt lat="42.60006" lon="2.10001">
        <ele>1567</ele>
        <time>2021-11-03T10:29:16Z</time>
      </trkpt>
      <trkpt lat="42.59974" lon="2.09992">
        <ele>1567</ele>
        <time>2021-11-03T10:29:16Z</time>
      </trkpt>
      <trkpt lat="42.59918" lon="2.09963">
        <ele>1568</ele>
        <time>2021-11-03T10:29:16Z</time>
      </trkpt>
      <trkpt lat="42.59889" lon="2.09957">
        <ele>1568</ele>
        <time>2021-11-03T10:29:16Z</time>
      </trkpt>
      <trkpt lat="42.59867" lon="2.09962">
        <ele>1568</ele>
        <time>2021-11-03T10:29:16Z</time>
      </trkpt>
      <trkpt lat="42.59824" lon="2.09951">
        <ele>1568</ele>
        <time>2021-11-03T10:29:16Z</time>
      </trkpt>
      <trkpt lat="42.59564" lon="2.09834">
        <ele>1574</ele>
        <time>2021-11-03T10:29:16Z</time>
      </trkpt>
      <trkpt lat="42.5943" lon="2.0978">
        <ele>1578</ele>
        <time>2021-11-03T10:29:16Z</time>
      </trkpt>
      <trkpt lat="42.59367" lon="2.09785">
        <ele>1577</ele>
        <time>2021-11-03T10:29:16Z</time>
      </trkpt>
      <trkpt lat="42.5934" lon="2.09791">
        <ele>1576</ele>
        <time>2021-11-03T10:29:16Z</time>
      </trkpt>
      <trkpt lat="42.59309" lon="2.09805">
        <ele>1574</ele>
        <time>2021-11-03T10:29:16Z</time>
      </trkpt>
      <trkpt lat="42.59275" lon="2.09808">
        <ele>1573</ele>
        <time>2021-11-03T10:29:16Z</time>
      </trkpt>
      <trkpt lat="42.59254" lon="2.09818">
        <ele>1572</ele>
        <time>2021-11-03T10:29:16Z</time>
      </trkpt>
      <trkpt lat="42.59207" lon="2.09796">
        <ele>1572</ele>
        <time>2021-11-03T10:29:16Z</time>
      </trkpt>
      <trkpt lat="42.59086" lon="2.09781">
        <ele>1570</ele>
        <time>2021-11-03T10:29:16Z</time>
      </trkpt>
      <trkpt lat="42.58989" lon="2.09797">
        <ele>1567</ele>
        <time>2021-11-03T10:29:16Z</time>
      </trkpt>
      <trkpt lat="42.58675" lon="2.09671">
        <ele>1564</ele>
        <time>2021-11-03T10:29:16Z</time>
      </trkpt>
      <trkpt lat="42.58583" lon="2.09583">
        <ele>1563</ele>
        <time>2021-11-03T10:29:16Z</time>
      </trkpt>
      <trkpt lat="42.58529" lon="2.09568">
        <ele>1562</ele>
        <time>2021-11-03T10:29:16Z</time>
      </trkpt>
      <trkpt lat="42.58502" lon="2.09586">
        <ele>1561</ele>
        <time>2021-11-03T10:29:16Z</time>
      </trkpt>
      <trkpt lat="42.58455" lon="2.09583">
        <ele>1559</ele>
        <time>2021-11-03T10:29:16Z</time>
      </trkpt>
      <trkpt lat="42.58259" lon="2.0949">
        <ele>1556</ele>
        <time>2021-11-03T10:29:16Z</time>
      </trkpt>
      <trkpt lat="42.58199" lon="2.09483">
        <ele>1555</ele>
        <time>2021-11-03T10:29:16Z</time>
      </trkpt>
      <trkpt lat="42.5818" lon="2.09483">
        <ele>1554</ele>
        <time>2021-11-03T10:29:16Z</time>
      </trkpt>
      <trkpt lat="42.58167" lon="2.09503">
        <ele>1553</ele>
        <time>2021-11-03T10:29:16Z</time>
      </trkpt>
      <trkpt lat="42.58155" lon="2.09522">
        <ele>1552</ele>
        <time>2021-11-03T10:29:16Z</time>
      </trkpt>
      <trkpt lat="42.58144" lon="2.09537">
        <ele>1551</ele>
        <time>2021-11-03T10:29:16Z</time>
      </trkpt>
      <trkpt lat="42.58085" lon="2.09556">
        <ele>1551</ele>
        <time>2021-11-03T10:29:16Z</time>
      </trkpt>
      <trkpt lat="42.58023" lon="2.09599">
        <ele>1550</ele>
        <time>2021-11-03T10:29:16Z</time>
      </trkpt>
      <trkpt lat="42.57975" lon="2.09633">
        <ele>1549</ele>
        <time>2021-11-03T10:29:16Z</time>
      </trkpt>
      <trkpt lat="42.5795" lon="2.09646">
        <ele>1548</ele>
        <time>2021-11-03T10:29:16Z</time>
      </trkpt>
      <trkpt lat="42.5792" lon="2.09657">
        <ele>1548</ele>
        <time>2021-11-03T10:29:16Z</time>
      </trkpt>
      <trkpt lat="42.57894" lon="2.09677">
        <ele>1547</ele>
        <time>2021-11-03T10:29:16Z</time>
      </trkpt>
      <trkpt lat="42.57873" lon="2.09701">
        <ele>1547</ele>
        <time>2021-11-03T10:29:16Z</time>
      </trkpt>
      <trkpt lat="42.57862" lon="2.0972">
        <ele>1546</ele>
        <time>2021-11-03T10:29:16Z</time>
      </trkpt>
      <trkpt lat="42.57849" lon="2.09741">
        <ele>1546</ele>
        <time>2021-11-03T10:29:16Z</time>
      </trkpt>
      <trkpt lat="42.57828" lon="2.09793">
        <ele>1545</ele>
        <time>2021-11-03T10:29:16Z</time>
      </trkpt>
      <trkpt lat="42.57814" lon="2.09845">
        <ele>1544</ele>
        <time>2021-11-03T10:29:16Z</time>
      </trkpt>
      <trkpt lat="42.57802" lon="2.09897">
        <ele>1542</ele>
        <time>2021-11-03T10:29:16Z</time>
      </trkpt>
      <trkpt lat="42.57787" lon="2.09939">
        <ele>1542</ele>
        <time>2021-11-03T10:29:16Z</time>
      </trkpt>
      <trkpt lat="42.57778" lon="2.09957">
        <ele>1541</ele>
        <time>2021-11-03T10:29:16Z</time>
      </trkpt>
      <trkpt lat="42.57777" lon="2.09977">
        <ele>1541</ele>
        <time>2021-11-03T10:29:16Z</time>
      </trkpt>
      <trkpt lat="42.57792" lon="2.10012">
        <ele>1541</ele>
        <time>2021-11-03T10:29:16Z</time>
      </trkpt>
      <trkpt lat="42.578" lon="2.10026">
        <ele>1541</ele>
        <time>2021-11-03T10:29:16Z</time>
      </trkpt>
      <trkpt lat="42.57823" lon="2.10063">
        <ele>1543</ele>
        <time>2021-11-03T10:29:16Z</time>
      </trkpt>
      <trkpt lat="42.57862" lon="2.10088">
        <ele>1543</ele>
        <time>2021-11-03T10:29:16Z</time>
      </trkpt>
      <trkpt lat="42.57928" lon="2.10095">
        <ele>1544</ele>
        <time>2021-11-03T10:29:16Z</time>
      </trkpt>
      <trkpt lat="42.57966" lon="2.10099">
        <ele>1544</ele>
        <time>2021-11-03T10:29:16Z</time>
      </trkpt>
      <trkpt lat="42.58036" lon="2.10103">
        <ele>1544</ele>
        <time>2021-11-03T10:29:16Z</time>
      </trkpt>
      <trkpt lat="42.5807" lon="2.10109">
        <ele>1544</ele>
        <time>2021-11-03T10:29:16Z</time>
      </trkpt>
      <trkpt lat="42.5807" lon="2.10112">
        <ele>1544</ele>
        <time>2021-11-03T10:29:16Z</time>
      </trkpt>
      <trkpt lat="42.58067" lon="2.10139">
        <ele>1543</ele>
        <time>2021-11-03T10:29:16Z</time>
      </trkpt>
      <trkpt lat="42.57977" lon="2.10197">
        <ele>1541</ele>
        <time>2021-11-03T10:29:16Z</time>
      </trkpt>
    </trkseg>
  </trk>
</gpx>